Wind_Speed
18 19 19 19 20 20 21 22 22 21 22 23 24 25 25 25 25 26 26 26 25 24 24 25 24 24 24 24 25 25 26 27 28 29 29 29 30 30 30 30 30 30 29
19 19 19 20 21 22 22 23 22 22 22 23 23 24 24 25 25 26 26 26 25 24 25 25 24 24 24 25 25 25 27 27 28 28 28 28 29 29 30 30 30 29 29
19 19 20 21 22 23 23 23 22 22 22 23 23 24 25 25 26 26 26 26 25 24 23 23 24 24 24 25 25 26 26 26 26 26 26 27 27 28 28 28 28 28 27
20 20 21 21 22 23 23 22 22 21 22 22 23 24 24 25 25 25 25 24 23 23 22 22 22 22 23 24 24 24 25 25 25 25 24 24 24 24 25 25 25 26 26
20 20 21 21 21 21 21 21 21 22 22 23 23 24 24 24 24 24 24 23 22 21 21 21 20 21 22 23 23 23 24 24 24 23 23 22 22 22 23 23 24 25 25
20 20 20 20 20 20 20 20 20 21 22 22 22 22 22 22 22 22 22 22 21 21 20 19 19 20 21 22 22 22 21 21 21 21 21 22 21 21 22 22 23 24 25
20 19 19 19 19 20 20 19 19 20 20 20 21 21 21 21 21 22 21 20 20 20 20 19 19 20 20 21 21 20 19 18 19 19 19 19 20 20 21 21 22 23 24
19 19 18 19 18 18 18 18 18 19 19 19 19 20 20 20 20 20 19 19 20 20 18 18 19 20 20 20 18 17 17 17 17 18 18 18 18 19 19 20 21 23 23
18 17 17 18 18 18 17 17 17 18 18 18 18 19 18 18 19 19 19 19 18 17 17 18 19 19 18 17 16 15 15 16 15 15 16 16 17 18 18 18 19 20 22
17 17 17 18 18 17 17 17 18 18 17 18 17 17 18 18 18 18 18 17 16 16 16 17 18 18 17 16 16 15 15 13 13 13 13 15 16 16 17 17 17 17 19
17 16 16 16 17 17 16 16 17 16 16 16 16 16 17 17 16 16 16 15 15 15 16 17 17 18 17 16 15 15 14 14 13 12 12 12 13 14 15 15 16 16 17
15 15 15 15 15 16 16 16 16 16 16 16 15 16 16 16 15 15 14 14 14 15 16 16 17 17 17 16 16 16 15 14 13 12 11 11 11 12 13 14 15 16 17
14 14 14 13 14 14 15 15 15 16 15 15 15 16 15 14 14 15 14 14 15 16 16 17 17 16 16 16 15 15 14 13 12 12 11 11 11 11 12 13 14 15 16
14 14 13 13 13 14 14 14 14 15 14 14 15 15 14 14 14 14 14 15 16 17 17 17 16 15 15 15 15 14 13 12 11 11 11 11 11 12 12 11 12 13 14
13 13 13 13 13 14 14 14 13 13 13 13 14 14 14 14 14 15 15 16 16 17 16 15 14 15 15 15 15 14 13 11 11 11 11 11 10 11 10 10 10 11 12
13 13 13 12 13 14 14 14 13 13 13 13 13 14 15 14 14 14 15 16 16 16 15 15 15 15 15 16 16 14 13 12 11 11 11 11 10 10 10 10 10 10 10
13 12 12 12 13 14 14 13 13 13 13 13 13 14 14 14 14 15 15 15 15 15 15 16 16 16 16 17 17 16 14 12 11 11 11 11 11 11 10 10 9 9 10
13 12 12 12 13 14 13 13 13 13 13 13 13 13 13 13 14 14 14 14 14 14 15 16 17 17 17 17 17 16 14 12 11 10 10 10 9 9 9 9 9 9 9
13 13 13 14 14 14 13 13 14 13 13 12 12 12 12 12 13 14 14 14 14 14 15 16 17 18 18 18 18 16 14 12 11 10 10 9 9 8 8 9 9 9 8
14 14 14 14 14 14 14 14 13 13 13 12 12 12 11 11 12 13 14 13 14 14 15 16 17 18 18 18 17 16 14 13 12 10 10 10 9 9 8 8 8 8 7
14 14 14 14 14 14 14 13 13 13 12 12 12 12 11 11 12 13 13 13 14 15 16 16 18 18 18 18 18 16 14 13 12 11 10 9 10 9 9 8 8 9 9
15 16 16 15 15 14 14 14 13 12 12 11 11 11 10 11 12 12 12 12 13 14 15 16 17 17 17 18 18 17 15 14 12 11 11 10 10 9 8 8 9 9 9
17 17 17 16 16 15 14 13 12 12 11 11 11 11 10 11 11 11 11 12 13 14 15 15 16 17 17 18 18 17 16 14 13 12 12 11 11 10 9 8 8 8 9
18 17 17 17 16 15 14 13 13 13 13 12 12 12 12 12 12 11 11 12 12 13 14 15 16 17 17 17 17 17 16 15 14 13 13 12 11 9 9 8 8 9 9
19 19 18 18 17 16 15 15 14 13 13 13 13 13 13 13 13 12 12 12 14 14 14 15 16 16 16 17 16 16 16 15 14 13 13 12 11 10 9 9 9 9 9
20 20 19 18 17 17 16 15 14 14 13 13 13 13 14 13 13 13 13 14 14 14 14 15 16 16 16 16 16 16 15 14 14 13 12 11 10 10 10 10 10 9 9
Wind_Direction
299 297 296 296 295 295 295 294 294 296 298 300 300 301 303 304 305 305 306 304 299 296 294 291 289 288 287 286 284 283 282 280 278 275 272 271 269 267 265 263 261 261 259
298 297 297 297 296 296 296 295 294 294 297 299 301 302 304 306 308 309 308 307 303 299 295 293 291 289 288 287 286 287 286 282 280 278 275 271 269 267 265 263 262 260 259
299 299 297 298 297 296 296 296 296 294 296 299 301 303 303 305 307 308 308 307 304 301 299 298 293 289 289 288 288 289 287 283 280 279 277 272 268 266 265 262 259 259 258
301 301 302 301 302 299 297 297 298 297 299 301 302 303 305 306 308 308 308 307 306 304 301 301 297 293 293 292 291 290 288 283 280 278 276 274 271 267 264 262 259 257 256
306 307 306 305 305 304 303 300 300 300 301 303 304 304 305 307 309 309 310 309 309 309 306 305 304 298 297 297 296 295 290 286 280 275 272 273 271 269 265 260 258 257 255
306 306 307 308 307 306 305 305 302 303 304 305 306 306 308 310 313 312 311 311 311 311 309 306 307 306 304 302 300 297 294 289 281 274 271 272 270 268 266 263 260 257 256
309 309 310 311 309 307 308 309 309 309 309 308 308 309 311 313 315 314 313 313 314 313 312 311 312 310 309 309 305 297 294 291 285 277 274 273 269 266 264 263 261 259 257
312 312 312 313 314 313 316 316 315 316 315 314 312 312 315 316 317 317 316 316 315 315 314 315 314 314 315 314 311 305 298 294 288 281 276 272 270 266 263 263 262 261 259
315 314 313 314 315 317 320 322 321 320 319 320 319 318 320 320 320 320 320 319 318 316 316 317 318 319 319 316 315 313 306 300 293 287 279 273 270 267 266 265 262 260 259
317 315 314 314 317 318 320 322 322 322 323 323 322 323 324 323 323 323 321 321 321 321 319 319 320 322 322 320 319 317 312 310 303 295 287 278 272 270 268 268 265 262 261
316 317 315 317 318 318 319 323 325 326 327 329 328 330 329 327 327 326 324 324 325 324 322 323 323 324 324 322 321 320 316 312 307 300 294 286 280 276 272 271 270 263 260
316 318 318 316 318 319 320 324 327 329 329 332 334 335 335 335 336 336 332 329 330 330 330 328 327 327 328 327 324 320 315 313 309 300 293 290 289 285 281 277 270 264 260
318 318 317 315 316 320 323 329 332 334 336 339 340 340 341 342 342 341 339 336 336 335 333 332 331 329 329 330 327 322 317 313 308 301 295 291 293 292 292 284 275 268 265
316 315 314 314 315 320 324 327 331 335 338 341 343 344 344 346 346 344 342 341 341 339 338 336 337 337 336 336 332 328 322 315 310 305 300 298 296 295 291 287 281 274 269
313 314 312 311 313 318 322 325 329 333 338 341 342 344 347 348 349 349 348 345 345 346 348 350 351 349 345 342 338 333 326 319 314 310 304 303 300 297 290 284 282 283 279
310 311 312 311 312 316 320 324 327 331 336 338 339 342 345 348 350 353 352 352 353 356 356 355 355 353 351 349 346 340 332 322 317 314 312 310 306 302 296 288 285 282 278
307 306 308 309 313 316 320 323 326 329 331 332 334 339 344 347 349 350 354 356 356 357 358 356 355 355 353 350 347 345 338 330 324 319 316 313 311 308 304 297 290 285 282
303 304 306 307 310 315 318 321 323 324 325 326 328 333 336 339 344 350 352 353 355 357 358 358 357 355 353 352 349 345 341 334 329 327 325 324 323 318 311 303 295 291 290
297 299 303 306 308 311 312 316 320 320 319 323 324 327 330 337 346 348 350 351 352 354 356 356 356 354 353 352 351 350 347 344 339 336 333 330 325 322 317 310 304 298 291
293 295 297 302 304 305 305 306 313 316 316 320 324 323 328 337 345 347 351 353 353 354 355 354 354 354 354 354 354 352 350 345 341 337 335 334 330 329 324 316 316 313 304
287 289 293 296 299 301 301 302 307 312 315 318 325 330 333 336 341 344 348 350 352 353 354 354 354 355 356 356 355 353 352 349 346 343 339 337 334 328 323 321 318 316 314
282 286 289 290 291 292 293 297 302 307 313 316 322 327 329 332 338 342 345 346 349 352 354 355 356 358 359 358 356 354 352 350 349 348 343 340 337 333 327 324 321 318 316
279 284 286 285 285 284 285 291 294 299 306 310 314 318 323 328 331 337 341 343 347 349 351 352 354 355 355 355 355 354 353 353 352 351 346 341 337 334 330 326 323 323 323
277 278 281 282 282 281 281 284 285 290 299 303 308 310 314 320 326 329 333 338 343 347 349 349 350 351 351 351 351 352 352 353 353 353 350 346 342 340 335 327 322 323 323
273 274 276 278 279 278 278 281 281 285 291 295 300 303 307 312 317 322 326 330 336 339 342 344 346 348 349 348 348 348 349 349 348 347 347 347 346 345 342 334 327 325 322
271 271 273 275 276 276 275 278 281 283 286 292 296 298 301 305 309 313 316 320 325 331 334 338 342 344 345 347 347 346 345 346 346 343 341 341 341 342 339 334 330 328 328
Height
5849 5846 5844 5842 5840 5839 5837 5834 5832 5830 5827 5825 5822 5820 5817 5814 5811 5808 5804 5801 5798 5795 5792 5789 5787 5785 5783 5781 5780 5778 5777 5776 5774 5773 5773 5773 5772 5772 5772 5772 5773 5774 5774
5845 5843 5840 5838 5836 5834 5831 5829 5827 5825 5822 5819 5817 5814 5811 5808 5805 5801 5798 5794 5791 5788 5785 5782 5780 5778 5776 5774 5772 5770 5769 5767 5766 5765 5764 5764 5765 5764 5763 5764 5764 5765 5766
5841 5838 5836 5833 5831 5829 5826 5824 5821 5819 5817 5814 5811 5808 5805 5802 5799 5795 5791 5788 5784 5781 5778 5775 5772 5770 5769 5767 5765 5763 5761 5759 5758 5757 5756 5756 5756 5755 5755 5756 5757 5758 5759
5837 5834 5832 5829 5826 5823 5820 5818 5815 5813 5811 5808 5805 5802 5800 5797 5793 5789 5785 5782 5778 5774 5771 5769 5766 5764 5762 5760 5757 5755 5753 5752 5751 5749 5748 5748 5747 5747 5748 5748 5749 5750 5751
5833 5830 5827 5824 5821 5818 5815 5812 5810 5808 5805 5803 5800 5797 5794 5791 5787 5784 5780 5776 5772 5769 5766 5763 5760 5758 5756 5753 5751 5749 5747 5745 5743 5742 5742 5741 5740 5740 5741 5741 5742 5743 5744
5829 5826 5823 5820 5817 5814 5811 5808 5805 5802 5800 5797 5795 5792 5789 5785 5782 5778 5775 5771 5768 5764 5761 5758 5756 5753 5750 5747 5744 5742 5740 5738 5736 5735 5735 5735 5734 5734 5733 5734 5735 5736 5737
5825 5822 5819 5816 5813 5810 5807 5804 5801 5798 5795 5793 5790 5787 5784 5780 5777 5773 5770 5766 5763 5760 5757 5754 5751 5748 5745 5742 5738 5736 5734 5732 5730 5729 5728 5728 5728 5727 5727 5727 5728 5729 5730
5822 5818 5815 5812 5809 5806 5803 5800 5797 5794 5791 5788 5785 5782 5779 5776 5772 5769 5765 5762 5759 5756 5753 5750 5747 5744 5740 5737 5733 5731 5729 5726 5725 5723 5722 5722 5721 5721 5721 5721 5722 5723 5723
5818 5815 5812 5809 5806 5803 5800 5797 5794 5791 5788 5785 5781 5778 5775 5772 5768 5765 5762 5758 5755 5752 5749 5746 5743 5740 5736 5733 5730 5727 5724 5722 5720 5718 5717 5716 5716 5715 5715 5715 5715 5716 5717
5814 5812 5809 5806 5803 5799 5796 5793 5790 5787 5784 5781 5778 5775 5772 5768 5765 5761 5758 5755 5752 5749 5746 5743 5740 5736 5733 5729 5726 5723 5720 5718 5716 5714 5712 5711 5710 5710 5710 5710 5710 5710 5711
5811 5809 5806 5803 5800 5797 5794 5791 5787 5784 5781 5778 5775 5772 5768 5765 5762 5758 5755 5752 5749 5746 5743 5740 5736 5733 5729 5726 5723 5719 5716 5714 5712 5710 5708 5707 5706 5705 5705 5704 5704 5705 5705
5808 5805 5803 5800 5797 5794 5792 5788 5785 5782 5779 5776 5773 5770 5766 5763 5760 5756 5753 5750 5747 5744 5740 5737 5733 5730 5726 5723 5719 5716 5713 5711 5708 5706 5705 5703 5702 5701 5700 5699 5699 5699 5700
5805 5802 5800 5798 5795 5792 5789 5786 5783 5780 5777 5774 5771 5768 5765 5762 5758 5755 5751 5748 5745 5741 5738 5734 5730 5727 5723 5720 5716 5713 5709 5707 5705 5703 5701 5700 5698 5697 5696 5695 5695 5694 5695
5802 5800 5798 5795 5793 5790 5787 5784 5781 5779 5776 5773 5770 5767 5764 5760 5757 5753 5750 5747 5743 5739 5736 5732 5728 5724 5720 5717 5713 5710 5707 5704 5701 5699 5697 5696 5694 5693 5692 5691 5690 5690 5690
5800 5797 5795 5793 5791 5788 5785 5782 5780 5777 5775 5772 5769 5766 5763 5759 5756 5752 5749 5745 5742 5738 5734 5730 5726 5723 5719 5715 5711 5708 5704 5701 5699 5696 5694 5692 5690 5689 5688 5687 5686 5686 5686
5797 5795 5793 5790 5788 5786 5784 5781 5778 5776 5774 5771 5768 5765 5762 5758 5755 5751 5747 5744 5740 5737 5733 5729 5726 5722 5718 5714 5710 5706 5702 5699 5696 5694 5691 5689 5687 5686 5685 5684 5683 5683 5682
5794 5792 5790 5788 5786 5784 5782 5779 5777 5774 5772 5770 5767 5764 5761 5758 5754 5750 5747 5743 5740 5736 5732 5728 5725 5721 5717 5712 5708 5704 5700 5697 5694 5692 5689 5687 5685 5684 5682 5681 5680 5679 5679
5791 5789 5787 5785 5784 5782 5779 5777 5775 5773 5770 5768 5765 5763 5760 5757 5753 5750 5746 5743 5739 5736 5732 5728 5724 5720 5716 5711 5707 5703 5698 5695 5692 5690 5687 5685 5683 5681 5680 5679 5677 5677 5676
5787 5786 5784 5782 5781 5779 5777 5775 5773 5771 5768 5766 5763 5761 5758 5755 5752 5749 5746 5742 5739 5735 5732 5728 5724 5719 5715 5711 5706 5701 5697 5694 5691 5689 5686 5684 5682 5680 5678 5677 5675 5674 5674
5783 5782 5781 5779 5777 5776 5774 5772 5771 5768 5766 5764 5761 5759 5757 5754 5751 5748 5745 5741 5738 5734 5731 5727 5723 5719 5714 5710 5705 5700 5696 5693 5690 5687 5685 5683 5680 5678 5676 5675 5674 5673 5672
5779 5778 5777 5775 5774 5772 5771 5769 5768 5766 5764 5762 5759 5757 5755 5752 5750 5747 5744 5740 5737 5733 5730 5726 5722 5718 5713 5709 5704 5700 5696 5692 5689 5687 5684 5682 5679 5677 5675 5673 5672 5671 5670
5774 5773 5772 5771 5770 5769 5767 5766 5765 5763 5761 5759 5757 5755 5753 5751 5748 5746 5743 5739 5736 5733 5729 5725 5721 5717 5713 5708 5704 5699 5695 5691 5688 5686 5683 5680 5678 5675 5673 5672 5671 5669 5668
5769 5768 5767 5766 5765 5764 5763 5762 5761 5760 5758 5757 5755 5753 5751 5749 5747 5744 5741 5738 5735 5732 5728 5724 5720 5716 5712 5708 5703 5699 5695 5691 5688 5685 5682 5679 5677 5674 5672 5671 5669 5667 5666
5763 5763 5762 5761 5761 5760 5759 5758 5757 5756 5755 5754 5752 5751 5749 5747 5744 5742 5739 5737 5734 5730 5727 5723 5719 5715 5711 5707 5703 5698 5694 5691 5687 5684 5681 5678 5676 5674 5671 5669 5668 5666 5664
5757 5757 5756 5756 5756 5755 5754 5754 5753 5752 5751 5750 5749 5748 5746 5744 5742 5739 5737 5735 5732 5729 5725 5722 5718 5714 5710 5705 5701 5697 5693 5690 5686 5683 5680 5678 5675 5672 5670 5668 5666 5664 5663
5750 5750 5750 5750 5750 5750 5749 5749 5748 5748 5747 5746 5745 5744 5742 5740 5738 5736 5734 5732 5729 5726 5723 5720 5716 5712 5708 5704 5700 5696 5692 5688 5685 5682 5679 5676 5673 5671 5669 5667 5664 5663 5661